Location: Newark
(7.1028°S, 35.3258°W)
Time: 05:09:41
(UTC+00:00)

Hubble Space Telescope - Pass Details

Date: 25 January 2020
Orbit: 536 x 540 km, 28.5° (Epoch: 20 February)

Event Time Altitude Azimuth Distance (km) Brightness Sun altitude
Exits shadow 07:55:26 - 296° (WNW) 1,943 2.9 -6.6°
Reaches altitude 10° 07:56:22 10° 307° (NW) 1,775 2.8 -6.4°
Maximum altitude 07:57:56 12° 330° (NNW) 1,655 2.8 -6.0°
Drops below altitude 10° 07:59:30 10° 352° (N) 1,772 3.1 -5.6°
Sets 08:03:06 0° 25° (NNE) 2,659 4.4 -4.8°
